TimeCST,TemperatureF,Dew PointF,Humidity,Sea Level PressureIn,VisibilityMPH,Wind Direction,Wind SpeedMPH,Gust SpeedMPH,PrecipitationIn,Events,Conditions,WindDirDegrees,DateUTC
12:54 AM,69.1,66.0,90,29.99,10.0,SSE,11.5,-,N/A,,Overcast,150,2013-01-12 06:54:00
1:33 AM,68.0,66.2,94,30.00,10.0,SSE,12.7,-,0.02,,Overcast,160,2013-01-12 07:33:00
1:54 AM,69.1,66.9,93,29.99,10.0,SSE,11.5,-,0.02,,Overcast,160,2013-01-12 07:54:00
2:54 AM,69.1,66.9,93,29.99,10.0,SSE,10.4,-,N/A,,Overcast,160,2013-01-12 08:54:00
3:36 AM,69.8,66.2,88,29.99,10.0,SSE,12.7,-,0.00,,Overcast,160,2013-01-12 09:36:00
3:54 AM,69.1,66.9,93,29.98,10.0,SSE,11.5,-,0.00,,Overcast,160,2013-01-12 09:54:00
4:54 AM,70.0,66.9,90,29.97,10.0,South,12.7,-,N/A,,Overcast,170,2013-01-12 10:54:00
5:14 AM,69.8,66.2,88,29.98,10.0,SSE,13.8,-,N/A,,Overcast,160,2013-01-12 11:14:00
5:54 AM,70.0,66.9,90,29.98,10.0,South,12.7,-,N/A,,Overcast,170,2013-01-12 11:54:00
6:40 AM,69.8,66.2,88,29.99,10.0,SSE,10.4,-,N/A,,Overcast,160,2013-01-12 12:40:00
6:54 AM,70.0,66.0,87,29.99,10.0,South,15.0,-,N/A,,Overcast,170,2013-01-12 12:54:00
7:05 AM,69.8,66.2,88,30.00,10.0,SSE,11.5,-,N/A,,Overcast,160,2013-01-12 13:05:00
7:13 AM,69.8,66.2,88,30.00,10.0,SSE,13.8,-,N/A,,Overcast,160,2013-01-12 13:13:00
7:54 AM,69.1,64.9,87,30.01,10.0,SSE,11.5,-,N/A,,Overcast,160,2013-01-12 13:54:00
8:54 AM,71.1,66.0,84,30.02,10.0,South,17.3,23.0,N/A,,Overcast,170,2013-01-12 14:54:00
9:54 AM,72.0,66.0,81,30.03,10.0,South,13.8,-,N/A,,Overcast,170,2013-01-12 15:54:00
10:54 AM,73.4,66.2,78,30.02,10.0,South,11.5,-,N/A,,Overcast,180,2013-01-12 16:54:00
11:54 AM,75.0,64.9,71,29.96,10.0,South,17.3,-,N/A,,Mostly Cloudy,180,2013-01-12 17:54:00
12:54 PM,75.0,64.9,71,29.94,10.0,South,21.9,28.8,N/A,,Scattered Clouds,170,2013-01-12 18:54:00
1:42 PM,77.0,64.4,65,29.92,10.0,SSE,15.0,20.7,N/A,,Mostly Cloudy,160,2013-01-12 19:42:00
1:54 PM,75.9,64.9,69,29.90,10.0,South,16.1,25.3,N/A,,Scattered Clouds,170,2013-01-12 19:54:00
2:54 PM,75.9,64.9,69,29.90,10.0,South,21.9,28.8,N/A,,Scattered Clouds,180,2013-01-12 20:54:00
3:54 PM,75.0,64.9,71,29.90,10.0,South,17.3,-,N/A,,Overcast,170,2013-01-12 21:54:00
4:54 PM,73.9,64.9,73,29.89,10.0,South,17.3,21.9,N/A,,Scattered Clouds,170,2013-01-12 22:54:00
5:54 PM,72.0,64.9,78,29.88,10.0,SSE,12.7,-,N/A,,Scattered Clouds,160,2013-01-12 23:54:00
6:54 PM,71.1,64.9,81,29.88,10.0,South,16.1,-,N/A,,Scattered Clouds,170,2013-01-13 00:54:00
7:54 PM,70.0,64.9,84,29.88,10.0,SSE,15.0,23.0,N/A,,Scattered Clouds,160,2013-01-13 01:54:00
8:54 PM,70.0,64.9,84,29.88,10.0,South,16.1,21.9,N/A,,Mostly Cloudy,170,2013-01-13 02:54:00
9:08 PM,69.8,64.4,83,29.88,10.0,SSE,20.7,27.6,N/A,,Scattered Clouds,160,2013-01-13 03:08:00
9:54 PM,69.1,64.0,84,29.88,10.0,South,13.8,23.0,N/A,,Scattered Clouds,180,2013-01-13 03:54:00
10:05 PM,69.8,64.4,83,29.88,10.0,SSE,15.0,21.9,N/A,,Mostly Cloudy,160,2013-01-13 04:05:00
10:54 PM,70.0,64.9,84,29.87,10.0,South,17.3,24.2,N/A,,Mostly Cloudy,170,2013-01-13 04:54:00
11:54 PM,70.0,64.9,84,29.85,10.0,South,19.6,25.3,N/A,,Mostly Cloudy,170,2013-01-13 05:54:00